TimeEST,TemperatureF,Dew PointF,Humidity,Sea Level PressureIn,VisibilityMPH,Wind Direction,Wind SpeedMPH,Gust SpeedMPH,PrecipitationIn,Events,Conditions,WindDirDegrees,DateUTC
12:15 AM,27.7,23.4,84,29.96,10.0,Calm,Calm,-,N/A,,Scattered Clouds,0,2013-02-03 05:15:00
12:35 AM,27.9,23.7,84,29.95,10.0,South,3.5,-,N/A,,Scattered Clouds,180,2013-02-03 05:35:00
12:55 AM,26.6,22.8,86,29.95,10.0,Calm,Calm,-,N/A,,Clear,0,2013-02-03 05:55:00
1:15 AM,26.2,23.2,88,29.94,10.0,Calm,Calm,-,N/A,,Clear,0,2013-02-03 06:15:00
1:35 AM,26.1,23.2,89,29.93,10.0,Calm,Calm,-,N/A,,Clear,0,2013-02-03 06:35:00
1:55 AM,25.5,22.8,89,29.93,7.0,Calm,Calm,-,N/A,,Mostly Cloudy,0,2013-02-03 06:55:00
2:15 AM,23.7,21.0,89,29.92,10.0,Calm,Calm,-,N/A,,Mostly Cloudy,0,2013-02-03 07:15:00
2:35 AM,23.9,20.7,87,29.91,10.0,Calm,Calm,-,N/A,,Overcast,0,2013-02-03 07:35:00
3:15 AM,25.2,22.1,88,29.90,10.0,Calm,Calm,-,N/A,,Overcast,0,2013-02-03 08:15:00
3:35 AM,25.5,22.1,87,29.89,10.0,Calm,Calm,-,N/A,,Overcast,0,2013-02-03 08:35:00
4:15 AM,25.3,22.3,88,29.87,10.0,Calm,Calm,-,N/A,,Overcast,0,2013-02-03 09:15:00
4:35 AM,25.3,22.5,89,29.86,10.0,Calm,Calm,-,N/A,,Overcast,0,2013-02-03 09:35:00
4:55 AM,25.7,22.8,89,29.86,10.0,Calm,Calm,-,N/A,,Overcast,0,2013-02-03 09:55:00
5:15 AM,25.7,23.0,89,29.86,10.0,Calm,Calm,-,N/A,,Overcast,0,2013-02-03 10:15:00
5:35 AM,26.6,23.9,90,29.87,10.0,Calm,Calm,-,N/A,,Overcast,0,2013-02-03 10:35:00
5:55 AM,27.5,24.4,88,29.86,10.0,Calm,Calm,-,N/A,,Overcast,0,2013-02-03 10:55:00
6:15 AM,28.2,25.3,89,29.87,10.0,Calm,Calm,-,N/A,,Overcast,0,2013-02-03 11:15:00
6:35 AM,28.6,25.2,87,29.87,10.0,Calm,Calm,-,N/A,,Overcast,0,2013-02-03 11:35:00
7:15 AM,28.8,25.3,87,29.87,10.0,Calm,Calm,-,N/A,,Overcast,0,2013-02-03 12:15:00
7:35 AM,28.9,25.5,87,29.88,10.0,Calm,Calm,-,N/A,,Overcast,0,2013-02-03 12:35:00
7:55 AM,29.1,25.7,87,29.88,7.0,Calm,Calm,-,N/A,,Overcast,0,2013-02-03 12:55:00
8:15 AM,29.3,26.2,88,29.88,7.0,Calm,Calm,-,N/A,,Overcast,0,2013-02-03 13:15:00
8:35 AM,30.2,26.4,86,29.89,7.0,Calm,Calm,-,N/A,Snow,Light Snow,0,2013-02-03 13:35:00
8:55 AM,30.7,26.4,84,29.88,7.0,Calm,Calm,-,N/A,,Overcast,0,2013-02-03 13:55:00
9:15 AM,31.1,26.6,83,29.88,10.0,Calm,Calm,-,N/A,,Overcast,0,2013-02-03 14:15:00
9:35 AM,31.5,26.8,83,29.88,7.0,Calm,Calm,-,N/A,,Overcast,0,2013-02-03 14:35:00
9:55 AM,32.0,27.5,83,29.88,10.0,Calm,Calm,-,N/A,,Overcast,0,2013-02-03 14:55:00
10:15 AM,34.0,25.5,71,29.88,10.0,SW,8.1,-,N/A,,Overcast,230,2013-02-03 15:15:00
10:35 AM,34.9,19.4,53,29.88,10.0,WSW,6.9,-,N/A,,Overcast,250,2013-02-03 15:35:00
10:55 AM,35.6,17.1,47,29.87,10.0,West,6.9,-,N/A,,Overcast,270,2013-02-03 15:55:00
11:15 AM,35.8,16.5,46,29.86,10.0,WSW,6.9,-,N/A,,Overcast,250,2013-02-03 16:15:00
11:55 AM,36.7,15.8,43,29.84,10.0,Calm,Calm,-,N/A,,Overcast,0,2013-02-03 16:55:00
12:15 PM,37.4,15.8,41,29.84,10.0,West,5.8,-,N/A,,Overcast,260,2013-02-03 17:15:00
12:35 PM,38.3,15.8,40,29.82,10.0,WSW,5.8,9.2,N/A,,Overcast,250,2013-02-03 17:35:00
12:55 PM,37.8,17.8,44,29.82,10.0,WSW,9.2,-,N/A,,Overcast,240,2013-02-03 17:55:00
1:15 PM,38.1,19.2,47,29.81,10.0,WSW,13.8,-,N/A,,Overcast,240,2013-02-03 18:15:00
1:35 PM,38.8,19.8,46,29.80,10.0,SW,13.8,17.3,N/A,,Overcast,220,2013-02-03 18:35:00
1:55 PM,39.4,19.9,46,29.79,10.0,West,10.4,-,N/A,,Overcast,260,2013-02-03 18:55:00
2:15 PM,38.3,20.5,49,29.79,10.0,SW,11.5,20.7,N/A,,Overcast,230,2013-02-03 19:15:00
2:35 PM,38.3,21.2,50,29.79,10.0,WSW,9.2,-,N/A,,Overcast,240,2013-02-03 19:35:00
2:55 PM,37.9,21.7,52,29.80,10.0,SW,11.5,-,N/A,,Overcast,230,2013-02-03 19:55:00
3:15 PM,37.8,21.7,53,29.80,10.0,WSW,8.1,17.3,N/A,,Overcast,240,2013-02-03 20:15:00
3:55 PM,37.0,23.0,57,29.80,10.0,SW,9.2,-,N/A,,Overcast,230,2013-02-03 20:55:00
4:15 PM,38.1,21.7,52,29.81,10.0,West,12.7,16.1,N/A,,Mostly Cloudy,260,2013-02-03 21:15:00
4:35 PM,37.6,21.9,53,29.82,10.0,West,6.9,17.3,N/A,,Overcast,260,2013-02-03 21:35:00
4:55 PM,37.8,21.2,51,29.81,10.0,WSW,9.2,-,N/A,,Overcast,250,2013-02-03 21:55:00
5:15 PM,36.5,20.3,52,29.82,10.0,WSW,6.9,-,N/A,,Mostly Cloudy,250,2013-02-03 22:15:00
5:55 PM,35.6,17.6,48,29.83,10.0,West,8.1,18.4,N/A,,Overcast,270,2013-02-03 22:55:00
6:15 PM,35.6,18.1,49,29.84,10.0,West,11.5,-,N/A,,Overcast,260,2013-02-03 23:15:00
6:55 PM,35.2,18.0,49,29.86,10.0,West,10.4,19.6,N/A,,Overcast,270,2013-02-03 23:55:00
7:15 PM,34.2,18.7,53,29.88,10.0,West,12.7,19.6,N/A,,Overcast,270,2013-02-04 00:15:00
7:35 PM,33.8,18.1,53,29.88,10.0,West,12.7,20.7,N/A,,Overcast,270,2013-02-04 00:35:00
7:55 PM,33.3,17.8,53,29.90,10.0,West,11.5,16.1,N/A,Snow,Light Snow,280,2013-02-04 00:55:00
8:35 PM,32.5,17.8,55,29.92,10.0,West,3.5,-,N/A,,Overcast,260,2013-02-04 01:35:00
8:55 PM,32.4,16.9,53,29.92,10.0,WSW,4.6,-,N/A,,Overcast,240,2013-02-04 01:55:00
9:15 PM,32.0,16.7,53,29.93,10.0,WSW,8.1,-,N/A,,Overcast,240,2013-02-04 02:15:00
9:35 PM,32.0,15.6,51,29.93,10.0,WSW,8.1,-,N/A,,Overcast,250,2013-02-04 02:35:00
9:55 PM,32.0,14.4,48,29.93,10.0,West,3.5,-,N/A,,Overcast,270,2013-02-04 02:55:00
10:15 PM,32.0,14.2,48,29.94,10.0,West,4.6,-,N/A,,Overcast,270,2013-02-04 03:15:00
10:35 PM,31.8,13.1,46,29.94,10.0,WNW,9.2,16.1,N/A,,Overcast,300,2013-02-04 03:35:00
10:55 PM,31.1,11.3,44,29.95,10.0,WNW,8.1,16.1,N/A,,Overcast,300,2013-02-04 03:55:00
11:15 PM,30.7,11.1,44,29.95,10.0,NW,10.4,17.3,N/A,,Overcast,310,2013-02-04 04:15:00
11:55 PM,29.1,10.9,47,29.96,10.0,WNW,8.1,-,N/A,,Scattered Clouds,300,2013-02-04 04:55:00